Location: ?p Dangia
(12.0167°N, 108.4333°E)
Time: 12:50:46
(UTC+00:00)

Ariane Rocket - Pass Details

Date: 07 June 2020
Orbit: 760 x 770 km, 98.7° (Epoch: 14 July)

Event Time Altitude Azimuth Distance (km) Brightness Sun altitude
Exits shadow 11:48:58 12° 113° (ESE) 2,160 4.6 -9.6°
Maximum altitude 11:51:56 19° 74° (ENE) 1,756 4.5 -10.2°
Drops below altitude 10° 11:55:26 10° 30° (NNE) 2,299 5.4 -11.0°
Sets 11:58:21 0° 13° (NNE) 3,227 6.4 -11.6°
